Starlink 1628

operational
NORAD ID: 46169 Int'l Des: 2020-057 Owner: SPXS Country: US Constellation: starlink
LEOCIRCULAR

关于 Starlink 1628

正在加载描述...

实时位置

正在加载3D地球...

即将过境

高度历史

Altitude vs Time

uPlot chart will show altitude changes over time

两行轨道根数

1 46169U 20057BE 25260.25009259 .00097694 00000-0 63909-3 0 9992
2 46169 53.0407 281.7539 0008747 40.2826 20.3900 15.75009793 5971
Epoch: Sep 17, 2025 • Age: 15 hours

当前状态

高度 365.1 km
速度 7.69 km/s
星下点 -51.71°S, 99.37°W
发射日期 Aug 18, 2020
运行时间 5 years
类型 internet

技术详情

分类 Payload
质量 260.00 kg
干质量 248.00 kg
总质量 260.00 kg
长度 0.20 m
直径 2.80 m
跨度 9.00 m
形状 Box + pan
制造商 SPXS
平台类型 Starlink
阶段状态 In Orbit
所有者/国家 SPXS/US

大型星座

Loading constellations...